Other Public Products
Issued by NWS Grand Forks, ND

Home | Current Version | Previous Version | Graphics & Text | Print | Product List | Glossary On
Versions: 1 2 3 4 5 6 7 8 9 10 11 12 13 14 15 16 17 18 19 20 21 22 23 24 25 26 27 28 29 30 31 32 33 34 35 36 37 38 39 40 41 42 43 44 45 46 47 48 49 50
000
FPUS83 KFGF 260031
OPUFGF
PRAIRIE TO PINES WEATHER ROUNDUP
NATIONAL WEATHER SERVICE EASTERN NORTH DAKOTA/GRAND FORKS ND
600 PM CST TUE NOV 25 2014

 **SATELLITE DATA USED TO AUGMENT SKY COVER AT AUTOMATED STATIONS**
 *****  WEATHER ACROSS EASTERN NORTH DAKOTA  *****

CITY           SKY/WX    TMP DP  RH WIND       PRES   REMARKS
GRAND FORKS    CLOUDY    21  16  81 NE12      29.98R WCI   9
6HR MIN TEMP:  20; 6HR MAX TEMP:  22;

GRAND FORKS AF LGT SNOW  19  16  86 NE9       29.98R FOG     WCI   9
GRAND CITY NWS   N/A     19 N/A N/A N10         N/A  WCI   8
BUXTON           N/A     22  17  83 NE9         N/A  WCI  11
DEVILS LAKE    CLOUDY    18   7  62 NE14      29.92R WCI   4
6HR MIN TEMP:  18; 6HR MAX TEMP:  25;

FARGO          CLOUDY    25  16  68 SE7       29.91S WCI  17
6HR MIN TEMP:  25; 6HR MAX TEMP:  27;

WAHPETON ARPT  CLOUDY    23  16  74 SE10      29.91F WCI  12
$$

 *****  WEATHER ACROSS CENTRAL AND WESTERN NORTH DAKOTA  *****

CITY           SKY/WX    TMP DP  RH WIND       PRES   REMARKS
JAMESTOWN      LGT SNOW  27  25  92 E13       29.81R VSB 3/4 WCI  16
6HR MIN TEMP:  27; 6HR MAX TEMP:  33; 6HR PCP:  0.04;

BISMARCK       CLOUDY    33  32  96 W5        29.72R
6HR MIN TEMP:  30; 6HR MAX TEMP:  33; 6HR PCP:  0.15;

MINOT          LGT SNOW  19  15  84 N20       29.90R VSB 1   WCI   3
6HR MIN TEMP:  19; 6HR MAX TEMP:  29; 6HR PCP:  0.05;

MINOT AFB      FLURRIES  19  18  93 NE18      29.94R WCI   4
6HR MIN TEMP:  19; 6HR MAX TEMP:  28; 6HR PCP:  0.02;

GARRISON         N/A     26  24  92 NE17G28   29.79R WCI  13
6HR MIN TEMP:  26; 6HR MAX TEMP:  31; 6HR PCP:  0.23;

WILLISTON      CLOUDY    22  16  78 N16       29.99R WCI   8
6HR MIN TEMP:  24; 6HR MAX TEMP:  37; 6HR PCP:  0.01;

DICKINSON      CLOUDY    33  28  81 NW23G32   29.77R WCI  21
6HR MIN TEMP:  33; 6HR MAX TEMP:  36; 6HR PCP: TRACE;

HETTINGER      CLOUDY    34  27  75 NW24G31   29.77R WCI  21
6HR MIN TEMP:  32; 6HR MAX TEMP:  36; 6HR PCP: TRACE;

$$

 *****  OTHER OBSERVATIONS NORTHEAST NORTH DAKOTA  *****

CITY           SKY/WX    TMP DP  RH WIND       PRES   REMARKS
WALHALLA       LGT SNOW  12  10  92 N14G22    30.06R WCI  -3
LANGDON        LGT SNOW  12   9  85 NE16      29.97R WCI  -4
CAVALIER       LGT SNOW  14  10  85 N12       30.05R WCI   0
GRAFTON        LGT SNOW  16  10  79 N13       30.02R WCI   2
CANDO          LGT SNOW  16  12  86 NE14G20   29.97R WCI   1
FORT TOTTEN      N/A     17  14  87 E8        29.95S WCI   7
ROLLA          FLURRIES  10   9  92 NE14      29.98R WCI  -5
RUGBY          LGT SNOW  16  14  93 NE21G28   29.94R WCI  -2
 ***** THE ABOVE OBSERVATIONS ARE NON NWS ARE NOT QUALITY
        CONTROLLED AND MAY MIS-REPORT RAIN FOR SNOW...
$$

 *****  OTHER OBSERVATIONS SOUTHEAST NORTH DAKOTA *****

CITY           SKY/WX    TMP DP  RH WIND       PRES   REMARKS
COOPERSTOWN    NOT AVBL
VALLEY CITY    LGT SNOW  25  25 100 E10       29.86R WCI  15
OAKES          LGT SNOW  28  27  93 E12       29.82S WCI  18
GWINNER        CLOUDY    30  23  74 E14       29.85S WCI  20
BUFFALO        NOT AVBL
WYNDMERE         N/A     25  19  80 SE10        N/A  WCI  15
 ***** THE ABOVE OBSERVATIONS ARE NON NWS ARE NOT QUALITY
       CONTROLLED AND MAY MIS-REPORT RAIN FOR SNOW...
$$

  *****  WEATHER ACROSS NORTHERN MINNESOTA  *****

CITY           SKY/WX    TMP DP  RH WIND       PRES   REMARKS
FLAG ISLAND    NOT AVBL
WARROAD        LGT SNOW  16  10  79 N8        30.00R WCI   5
ROSEAU         PTCLDY    16  10  79 N8        30.00R WCI   5
HALLOCK        PTCLDY    16   9  73 N13       30.02R WCI   2
THF RVR FALLS  CLOUDY    21  16  79 NE6       29.97R WCI  14
6HR MIN TEMP:  18; 6HR MAX TEMP:  21;

HALSTAD          N/A     25  19  80 N5          N/A  WCI  19
FOSSTON        CLOUDY    18  12  79 NE7       29.94S WCI   8
BAUDETTE       CLOUDY    17  12  80 NE3       29.97R
6HR MIN TEMP:  11; 6HR MAX TEMP:  18; 6HR PCP: TRACE;

WASKISH        CLOUDY    19  16  86 CALM      29.97R
CROOKSTON      CLOUDY    21  16  79 NE7       29.98R WCI  13
$$
  *****  WEATHER ACROSS CENTRAL AND WEST MINNESOTA  *****

CITY           SKY/WX    TMP DP  RH WIND       PRES   REMARKS
BEMIDJI        CLOUDY    18  11  75 E6        29.94R WCI   9
PARK RAPIDS    CLOUDY    20  10  65 SE7       29.92S WCI  11
6HR MIN TEMP:  18; 6HR MAX TEMP:  22;

WADENA         MOCLDY    18   9  68 SE6       29.93S WCI   9
DETROIT LAKES  MOCLDY    23  16  74 SE8       29.91S WCI  14
MOORHEAD       CLOUDY    25  19  80 SE7       29.93R WCI  17
FERGUS FALLS   CLOUDY    21  10  63 SE10      29.94F WCI  10
ELBOW LAKE       N/A     21  13  71 SE8       29.91F WCI  12
MORRIS MN      CLOUDY    23  18  80 SE12      29.91S WCI  12
STAPLES        MOCLDY    18   9  68 S3        29.95S
WHEATON        CLOUDY    21  18  86 E12       29.92F WCI   9
$$
  *****  WEATHER ELSEWHERE ACROSS MINNESOTA  *****

CITY           SKY/WX    TMP DP  RH WIND       PRES   REMARKS
DULUTH         MOCLDY    17   6  62 SW5       29.97R WCI  10
6HR MIN TEMP:  16; 6HR MAX TEMP:  21;

INTRNTL FALLS  MOCLDY     9   5  84 CALM      29.98R
6HR MIN TEMP:   9; 6HR MAX TEMP:  18;

ELY            PTCLDY     3   1  92 CALM      29.96S
CLOQUET        CLOUDY    18  10  73 S3        29.98S
BRAINERD       MOCLDY    17   7  64 CALM      29.97S
6HR MIN TEMP:  13; 6HR MAX TEMP:  18;

HIBBING        CLOUDY    19   4  51 CALM      29.97R
6HR MIN TEMP:  18; 6HR MAX TEMP:  23;

ALEXANDRIA     CLOUDY    20  12  71 SE8       29.93S WCI  10
6HR MIN TEMP:  19; 6HR MAX TEMP:  22;

SAINT CLOUD    CLOUDY    21  11  65 SE6       29.99F WCI  13
6HR MIN TEMP:  16; 6HR MAX TEMP:  21;

MINNEAPOLIS    CLOUDY    23  14  68 SE7       30.03S WCI  15
6HR MIN TEMP:  18; 6HR MAX TEMP:  24;

$$

  *****  WEATHER ACROSS SOUTH DAKOTA  *****

CITY           SKY/WX    TMP DP  RH WIND       PRES   REMARKS
SIOUX FALLS    CLOUDY    34  22  61 SE14      29.86F WCI  25
6HR MIN TEMP:  32; 6HR MAX TEMP:  37;

BROOKINGS      NOT AVBL
WATERTOWN      CLOUDY    29  22  75 SE9       29.83F WCI  20
6HR MIN TEMP:  26; 6HR MAX TEMP:  32;

HURON          CLOUDY    35  26  69 SE12      29.80F
6HR MIN TEMP:  33; 6HR MAX TEMP:  36;

SISSETON         N/A     26  21  81 SE9       29.87F WCI  17
ABERDEEN       CLOUDY    32  28  85 SE13      29.81S WCI  22
6HR MIN TEMP:  30; 6HR MAX TEMP:  32; 6HR PCP:  0.01;

MITCHELL       CLOUDY    36  27  69 SE10      29.81F
PIERRE         CLOUDY    33  31  92 W7        29.78R
6HR MIN TEMP:  32; 6HR MAX TEMP:  36; 6HR PCP:  0.02;

MOBRIDGE       CLOUDY    33  31  92 CALM      29.72R
RAPID CITY     CLOUDY    36  27  69 NW17G26   29.85R
6HR MIN TEMP:  34; 6HR MAX TEMP:  38;

$$

  *****  SOME WEATHER IN NEARBY STATES *****

CITY           SKY/WX    TMP DP  RH WIND       PRES   REMARKS
GLASGOW MT     CLOUDY    26  21  81 N14       30.04R WCI  14
6HR MIN TEMP:  26; 6HR MAX TEMP:  38;

GREAT FALLS MT CLOUDY    31  28  89 SW8       30.12R WCI  23
6HR MIN TEMP:  31; 6HR MAX TEMP:  35; 6HR PCP: TRACE;

CHEYENNE WY    MOCLDY    40  23  50 NW26G40   29.87R
6HR MIN TEMP:  36; 6HR MAX TEMP:  42;

SCOTTSBLUFF NE LGT RAIN  34  32  92 W8        29.93R
6HR MIN TEMP:  34; 6HR MAX TEMP:  49; 6HR PCP:  0.03;

OMAHA NE       CLOUDY    39  24  55 SE15      29.96F
6HR MIN TEMP:  36; 6HR MAX TEMP:  43;

DES MOINES IA  MOCLDY    33   8  35 SE8       30.05F
6HR MIN TEMP:  31; 6HR MAX TEMP:  37;

DAVENPORT IA   PTCLDY    18  14  84 CALM      30.14S
6HR MIN TEMP:  18; 6HR MAX TEMP:  24;

CHICAGO IL     PTCLDY    21  15  78 SW8       30.16R WCI  11
6HR MIN TEMP:  21; 6HR MAX TEMP:  26;

EAU CLAIRE WI  CLOUDY    22  14  71 S5        30.05S WCI  16
6HR MIN TEMP:  16; 6HR MAX TEMP:  22;

LA CROSSE WI   CLOUDY    24  14  65 S6        30.09F WCI  17
6HR MIN TEMP:  23; 6HR MAX TEMP:  28;

$$

  *****  SOME NATIONAL WEATHER *****

CITY           SKY/WX    TMP DP  RH WIND       PRES   REMARKS
LA GUARDIA NY  CLOUDY    53  28  38 W10       30.06R
6HR MIN TEMP:  52; 6HR MAX TEMP:  55;



USA.gov is the U.S. government's official web portal to all federal, state and local government web resources and services.